Location: Newark
(53.7833°N, 9.4833°E)
Time: 02:36:08
(UTC+00:00)

Envisat - Pass Details

Date: 15 December 2019
Orbit: 764 x 766 km, 98.1° (Epoch: 17 January)

Event Time Altitude Azimuth Distance (km) Brightness Sun altitude
Rises 04:51:51 0° 25° (NNE) 3,247 6.5 -22.2°
Reaches altitude 10° 04:55:00 10° 46° (NE) 2,314 5.9 -21.7°
Maximum altitude 04:58:17 17° 86° (E) 1,865 5.9 -21.3°
Drops below altitude 10° 05:01:33 10° 127° (SE) 2,302 6.4 -20.8°
Sets 05:04:40 0° 147° (SSE) 3,222 6.9 -20.3°
